Tracking 30995 objects as of 6-Jul-2025
HD Live streaming from Space Station
objects crossing your sky now

CZ-4C R/B

Track CZ-4C R/B now!
10-day predictions


NORAD ID: 49496
Int'l Code: 2021-109B
Perigee: 569.6 km
Apogee: 734.3 km
Inclination: 98.3 °
Period: 97.6 minutes
Semi major axis: 7022 km
RCS: Unknown
Launch date: November 22, 2021
Source: People's Republic of China (PRC)
Launch site: Jiuquan Satellite Launch Center, China (JSC)

Note: This is a ROCKET BODY
Your satellite tracking list
Your tracking list is empty




NASA's NSSDC Master Catalog

Two Line Element Set (TLE):
1 49496U 21109B   25187.61939099  .00000572  00000-0  84075-4 0  9996
2 49496  98.2521 249.4416 0117235 174.9211 185.3218 14.75112394194587
Source of the keplerian elements: AFSPC